Regional Weather Roundup
Issued by NWS

Home | Current Version | Previous Version | Graphics & Text | Print | Product List | Glossary On
Versions: 1 2 3 4 5 6 7 8 9 10 11 12 13 14 15 16 17 18 19 20 21 22 23 24 25 26 27 28 29 30 31 32 33 34 35 36 37 38 39 40 41 42 43 44 45 46 47 48 49 50
000
ASUS43 KLOT 030803
RWRIL

ILLINOIS REGIONAL WEATHER ROUNDUP
NATIONAL WEATHER SERVICE CHICAGO/ROMEOVILLE IL
300 AM CDT TUE MAY 03 2016

NOTE: "FAIR" INDICATES FEW OR NO CLOUDS BELOW 12,000 FEET WITH NO
SIGNIFICANT WEATHER AND/OR OBSTRUCTIONS TO VISIBILITY.

* THESE STATIONS ARE NOT UNDER NWS QUALITY CONTROL. THEY ALSO MAY NOT
  REPORT WEATHER SUCH AS PRECIPITATION OR FOG.

ILZ001-002-007-009-015-016-024-030900-
NORTHWEST ILLINOIS

CITY           SKY/WX    TMP DP  RH WIND       PRES   REMARKS
MOLINE         CLEAR     41  39  93 CALM      30.00F
STERLING*      CLEAR     45  39  81 CALM      30.00F
$$

ILZ003-004-008-010-011-017-018-030900-
NORTH CENTRAL ILLINOIS

CITY           SKY/WX    TMP DP  RH WIND       PRES   REMARKS
ROCKFORD       CLEAR     40  37  89 S3        30.01F
FREEPORT*      CLEAR     40  35  84 SW6       30.00F
ROCHELLE*      CLEAR     38  37  97 CALM      30.00F
DE KALB*       CLEAR     42  37  82 W5        30.00F
$$

ILZ005-006-012>014-019>023-030900-
NORTHEAST ILLINOIS

CITY           SKY/WX    TMP DP  RH WIND       PRES   REMARKS
CHICAGO-OHARE  PTCLDY    41  34  76 W5        29.97F
CHICAGO-MIDWAY CLEAR     43  35  73 W3        29.98F
AURORA         CLEAR     36  34  92 NW5       29.99F WCI  32
LANSING*       CLEAR     39  36  89 CALM      29.98F
WAUKEGAN       CLEAR     41  35  79 W5        29.97F
DUPAGE AIRPORT CLEAR     40  34  79 CALM      29.98F
WHEELING       CLEAR     41  36  82 CALM      29.99F
NORTHERLY ISL    N/A     48  34  58 W6          N/A
NORTHERLY ISL    N/A     48  34  58 W6          N/A
$$

LMZ740>746-030900-
SOUTHERN LAKE MICHIGAN

STATION/POSITION SKY/WX   TEMP    WIND        PRES    VSBY  WAVE
                          AIR SEA DIR/SP/G                  HT/PER
                          (F)     (DEG/KT/KT) (MB)    (MI)  (FT/S)
SOUTHERN BUOY              42 41  280/  2/  4 1015.3          1
HARRISON CRIB              48     290/  7/  8   N/A
BURNHAM HARBOR             47     270/  4/  7   N/A
CALUMET HARBOR             45     210/  2/  3 1015.0F
BURNS HARBOR               46     320/  3/  5 1015.9F
MICHIGAN CITY              44     280/  5/  6   N/A
ST. JOSEPH                 44 48                N/A           1/ 3
$$

ILZ025>027-034>036-040-047-049-050-058-095>099-030900-
WEST-CENTRAL ILLINOIS

CITY           SKY/WX    TMP DP  RH WIND       PRES   REMARKS
QUINCY         CLOUDY    49  47  93 NW5       30.02F
MACOMB*        CLOUDY    49  47  94 NW6       30.03F
PITTSFIELD*    CLOUDY    51  48  92 NW5       30.03S
$$

ILZ028>032-037-038-041>044-048-051>054-059>061-030900-
CENTRAL ILLINOIS

CITY           SKY/WX    TMP DP  RH WIND       PRES   REMARKS
BLOOMINGTON    PTCLDY    44  42  93 CALM      30.00F
DECATUR        CLOUDY    50  45  83 NW3       29.99F
PEORIA         PTCLDY    43  41  93 CALM      30.01F
SPRINGFIELD    CLOUDY    52  48  86 NW3       30.00F
TAYLORVILLE    NOT AVBL
$$

ILZ033-039-045-046-055>057-062-063-030900-
EAST-CENTRAL ILLINOIS

CITY           SKY/WX    TMP DP  RH WIND       PRES   REMARKS
CHAMPAIGN      MOCLDY    44  42  93 N5        29.97F
MATTOON        CLEAR     46  43  89 NW6       29.96F
$$

ILZ079-100>102-030900-
SOUTHWEST ILLINOIS

CITY           SKY/WX    TMP DP  RH WIND       PRES   REMARKS
ALTON          CLOUDY    50  49  97 W5        30.01F
CAHOKIA*       CLOUDY    54  49  83 NW8       30.01F
SPARTA*        CLOUDY    51  50  95 NW5       30.01S
$$

ILZ064>066-069>071-074>076-080>082-084>086-088>090-092>094-030900-
SOUTH-CENTRAL ILLINOIS

CITY           SKY/WX    TMP DP  RH WIND       PRES   REMARKS
CARBONDALE     CLOUDY    51  48  89 CALM      29.99F
EFFINGHAM*     CLOUDY    52  50  94 NW7       29.98F
MT. VERNON     CLOUDY    52  46  82 CALM      29.98F
SALEM*         CLOUDY    54  50  87 NW5       29.98F
$$

ILZ067-068-072-073-078-083-087-091-030900-
SOUTHEAST ILLINOIS

CITY           SKY/WX    TMP DP  RH WIND       PRES   REMARKS
LAWRENCEVILLE  PTCLDY    52  50  93 NW7       29.96S
FLORA*         CLOUDY    54  50  88 NW5       29.98S
HARRISBURG*    MOCLDY    51  49  93 CALM      29.98S
ROBINSON*      PTCLDY    48  48  99 CALM      29.96F
$$

ABBREVIATIONS USED IN REMARKS
   TC - TEMPERATURE IN CELSIUS
  WCI - WIND CHILL INDEX
   HX - HEAT INDEX
  VSB - VISIBILITY
$$




USA.gov is the U.S. government's official web portal to all federal, state and local government web resources and services.